Tracking 29781 objects as of 15-Oct-2024
HD Live streaming from Space Station
objects crossing your sky now

DELTA 1 DEB

Track DELTA 1 DEB now!
10-day predictions


NORAD ID: 26823
Int'l Code: 1975-052KD
Perigee: 1,034.1 km
Apogee: 1,098.5 km
Inclination: 100.0 °
Period: 106.4 minutes
Semi major axis: 7437 km
RCS: 0.0191 m2 (small)
Launch date: June 12, 1975
Source: United States (US)
Launch site: AIR FORCE WESTERN TEST RANGE (AFWTR)

Note: This is SATELLITE DEBRIS
Your satellite tracking list
Your tracking list is empty




NASA's NSSDC Master Catalog

Two Line Element Set (TLE):
1 26823U 75052KD  24288.56005646  .00002501  00000-0  37611-2 0  9994
2 26823 100.0177 148.8832 0043324 210.4744 179.2765 13.53561280623924
Source of the keplerian elements: AFSPC